Regional Weather Roundup
Issued by NWS

Home | Current Version | Previous Version | Graphics & Text | Print | Product List | Glossary On
Versions: 1 2 3 4 5 6 7 8 9 10 11 12 13 14 15 16 17 18 19 20 21 22 23 24 25 26 27 28 29 30 31 32 33 34 35 36 37 38 39 40 41 42 43 44 45 46 47 48 49 50
000
ASUS43 KLSX 041857
RWRMO

WEATHER SUMMARY FOR MISSOURI
NATIONAL WEATHER SERVICE SPRINGFIELD MO
100 PM CST SUN DEC 04 2016

NOTE: "FAIR" INDICATES FEW OR NO CLOUDS BELOW 12,000 FEET WITH NO
       SIGNIFICANT WEATHER AND/OR OBSTRUCTIONS TO VISIBILITY.
       CURRENT SKY AND/OR WEATHER CONDITIONS ARE NOT AVAILABLE FOR
       CHILLICOTHE AND FARMINGTON.

MOZ001>031-035>038-043-044-053-054-042000-
...NORTHERN AND WESTERN MISSOURI...

CITY           SKY/WX    TMP DP  RH WIND       PRES   REMARKS
KANSAS CTY INT CLOUDY    41  36  82 W10       29.96F
LEE`S SUMMIT   CLOUDY    43  38  82 NW12      29.96F
ST JOSEPH      CLOUDY    39  35  86 NW9       29.98F
CHILLICOTHE      N/A     38  36  92 CALM      29.96F

$$
MOZ066>068-077>081-088>096-101>105-042000-
...SOUTHWEST MISSOURI...

CITY           SKY/WX    TMP DP  RH WIND       PRES   REMARKS
SPRINGFIELD    CLOUDY    44  39  82 NW7       29.98F
BRANSON        CLOUDY    41  41 100 NW6       29.99F

$$
MOZ032>034-039>042-045>050-055>058-069>072-042000-
...CENTRAL MISSOURI...

CITY           SKY/WX    TMP DP  RH WIND       PRES   REMARKS
COLUMBIA       NOT AVBL
JEFFERSON CITY CLOUDY    40  36  86 W7        29.97F
ROLLA          CLOUDY    39  38  96 W10       29.94F
SEDALIA        CLOUDY    42  38  85 W12       29.98F

$$
MOZ051-052-059>065-042000-
...EAST CENTRAL MISSOURI...

CITY           SKY/WX    TMP DP  RH WIND       PRES   REMARKS
ST LOUIS INTL  LGT RAIN  38  34  85 W8        29.95F FOG

$$
MOZ072>076-082>087-097>100-106>115-042000-
...SOUTH CENTRAL AND SOUTHEAST MISSOURI...

CITY           SKY/WX    TMP DP  RH WIND       PRES   REMARKS
CAPE GIRARDEAU CLOUDY    43  41  93 SW9       29.96F
POPLAR BLUFF   CLOUDY    42  41  96 SW6       29.97F

$$


USA.gov is the U.S. government's official web portal to all federal, state and local government web resources and services.